FW6138 Weather Reports


Display with metric or nautical units.
time (UTC)temp
F
wind
direction
speed
MPH
gust
MPH
rain 1hr
in
rain 24hr
in
rain mn
in
humidity
%
barometer
mb
20260507021606 68 290 6.0 13.0 0.00 0.00 0.00 49 1019.3
20260507020038 69 292 7.0 17.0 0.00 0.00 0.00 48 1019.2
20260507014534 69 293 8.0 18.0 0.00 0.00 0.00 48 1019.1
20260507011536 70 296 10.0 19.0 0.00 0.00 0.00 48 1019.1
20260507004536 68 300 9.0 18.0 0.00 0.00 0.00 51 1019.1
20260507001537 68 305 9.0 15.0 0.00 0.00 0.00 52 1018.8
20260506234537 67 310 9.0 19.0 0.00 0.00 0.00 54 1018.7
20260506233038 68 309 9.0 17.0 0.00 0.00 0.00 54 1018.8
20260506231539 68 308 9.0 16.0 0.00 0.00 0.00 53 1018.8
20260506230106 68 321 7.0 20.0 0.00 0.00 0.00 53 1018.9
20260506224535 71 328 7.0 18.0 0.00 0.00 0.00 53 1018.9
20260506223038 72 331 8.0 18.0 0.00 0.00 0.00 52 1018.9
20260506221537 73 335 7.0 18.0 0.00 0.00 0.00 51 1019.0
20260506220041 72 328 8.0 18.0 0.00 0.00 0.00 52 1019.1
20260506214533 71 315 11.0 16.0 0.00 0.00 0.00 53 1018.9
20260506213106 71 316 10.0 21.0 0.00 0.00 0.00 54 1018.9
20260506211607 71 315 10.0 22.0 0.00 0.00 0.00 53 1018.8
20260506210030 71 314 11.0 23.0 0.00 0.00 0.00 53 1018.8
20260506204612 71 312 9.0 14.0 0.00 0.00 0.00 54 1018.8
20260506203030 70 317 11.0 19.0 0.00 0.00 0.00 55 1019.1
20260506201540 69 313 11.0 22.0 0.00 0.00 0.00 56 1019.2
20260506200030 69 311 11.0 25.0 0.00 0.00 0.00 58 1019.2
20260506194538 68 312 8.0 21.0 0.00 0.00 0.00 59 1019.4
20260506193029 68 312 9.0 20.0 0.00 0.00 0.00 60 1019.5
20260506191537 67 316 11.0 24.0 0.00 0.00 0.00 61 1019.5
20260506190031 67 317 9.0 22.0 0.00 0.00 0.00 63 1019.6
20260506184537 66 316 11.0 23.0 0.00 0.00 0.00 64 1019.6
20260506183035 66 312 12.0 21.0 0.00 0.00 0.00 63 1019.6
20260506181530 67 311 10.0 18.0 0.00 0.00 0.00 63 1019.5
20260506180037 66 313 10.0 17.0 0.00 0.00 0.00 65 1019.6
20260506174529 66 310 8.0 17.0 0.00 0.00 0.00 67 1019.7
20260506173035 65 300 8.0 18.0 0.00 0.00 0.00 67 1019.7
20260506171537 65 307 9.0 18.0 0.00 0.00 0.00 67 1019.6
20260506170031 66 294 6.0 16.0 0.00 0.00 0.00 67 1019.5
20260506164536 65 313 5.0 12.0 0.00 0.00 0.00 69 1019.6
20260506163031 64 307 6.0 13.0 0.00 0.00 0.00 70 1019.7
20260506161531 63 310 9.0 17.0 0.00 0.00 0.00 72 1020.1
20260506160038 63 312 8.0 16.0 0.00 0.00 0.00 73 1019.9
20260506153031 62 300 7.0 15.0 0.00 0.00 0.00 77 1019.8
20260506151536 60 288 4.0 9.0 0.00 0.00 0.00 85 1019.7
20260506150029 57 273 0.0 4.0 0.00 0.00 0.00 91 1019.9
20260506143029 54 157 0.0 0.0 0.00 0.00 0.00 95 1020.0
20260506141652 51 147 0.0 3.0 0.00 0.00 0.00 96 1020.0
20260506140037 50 76 1.0 5.0 0.00 0.00 0.00 96 1019.9
20260506134533 48 156 0.0 3.0 0.00 0.00 0.00 96 1019.7
20260506133032 48 181 0.0 3.0 0.00 0.00 0.00 96 1019.7
20260506131531 48 177 1.0 4.0 0.00 0.00 0.00 96 1019.7
20260506130037 48 265 2.0 6.0 0.00 0.00 0.00 96 1019.6
20260506124650 47 190 1.0 7.0 0.00 0.00 0.00 96 1019.4
20260506123031 47 245 1.0 5.0 0.00 0.00 0.00 95 1019.3
20260506121608 47 173 0.0 4.0 0.00 0.00 0.00 95 1019.2
20260506120029 47 135 1.0 4.0 0.00 0.00 0.00 95 1019.1
20260506114534 48 149 1.0 4.0 0.00 0.00 0.00 95 1019.0
20260506113028 48 151 2.0 4.0 0.00 0.00 0.00 95 1018.8
20260506111538 48 220 1.0 3.0 0.00 0.00 0.00 95 1018.7
20260506110033 49 173 1.0 4.0 0.00 0.00 0.00 95 1018.5
20260506104605 48 193 2.0 4.0 0.00 0.00 0.00 94 1018.4
20260506101606 49 157 0.0 3.0 0.00 0.00 0.00 94 1018.1
20260506100106 49 226 2.0 5.0 0.00 0.00 0.00 93 1018.2
20260506094539 49 188 1.0 4.0 0.00 0.00 0.00 93 1018.1
20260506093029 50 182 1.0 4.0 0.00 0.00 0.00 93 1018.0
20260506091529 51 228 2.0 6.0 0.00 0.00 0.00 94 1018.1
20260506090033 51 209 2.0 5.0 0.00 0.00 0.00 94 1018.0
20260506083028 50 179 1.0 4.0 0.00 0.00 0.00 94 1017.8
20260506081530 50 193 0.0 4.0 0.00 0.00 0.00 94 1017.7
20260506073113 49 252 1.0 5.0 0.00 0.00 0.00 93 1017.3
20260506071528 49 255 0.0 2.0 0.00 0.00 0.00 93 1017.2
20260506070106 50 261 0.0 2.0 0.00 0.00 0.00 92 1017.1
20260506061531 50 205 0.0 3.0 0.00 0.00 0.00 91 1016.8
20260506044543 53 246 0.0 2.0 0.00 0.00 0.00 85 1016.0
20260506041530 56 209 0.0 3.0 0.00 0.00 0.00 78 1015.7
20260506040039 59 247 0.0 2.0 0.00 0.00 0.00 74 1015.4
20260506034545 60 314 2.0 6.0 0.00 0.00 0.00 72 1015.1
20260506033030 61 312 3.0 7.0 0.00 0.00 0.00 71 1014.8
20260506031546 62 303 3.0 6.0 0.00 0.00 0.00 69 1014.6
20260506030041 64 289 3.0 11.0 0.00 0.00 0.00 66 1014.2
20260506024537 65 293 5.0 11.0 0.00 0.00 0.00 64 1014.1
20260506023029 67 307 5.0 12.0 0.00 0.00 0.00 62 1013.9